Regional Weather Roundup
Issued by NWS

Home | Current Version | Previous Version | Text Only | Print | Product List | Glossary On
Versions: 1 2 3 4 5 6 7 8 9 10 11 12 13 14 15 16 17 18 19 20 21 22 23 24 25 26 27 28 29 30 31 32 33 34 35 36 37 38 39 40 41 42 43 44 45 46 47 48 49 50
000
ASUS43 KOAX 280202
RWRNE

WEATHER ROUNDUP FOR NEBRASKA
NATIONAL WEATHER SERVICE OMAHA NE
900 PM CDT MON JUL 27 2015

NOTES: SATELLITE DATA IS BEING USED TO AUGMENT CLOUD COVER ABOVE
       12000 FEET.
       "FAIR" INDICATES FEW OR NO CLOUDS BELOW 12,000 FEET WITH NO
       SIGNIFICANT WEATHER AND/OR OBSTRUCTIONS TO VISIBILITY.

  * THESE STATIONS DO NOT REPORT WEATHER SUCH AS RAIN...SNOW OR FOG.

NEZ001>004-019>022-054>056-280300-
NEBRASKA PANHANDLE

CITY           SKY/WX    TMP DP  RH WIND       PRES   REMARKS
SCOTTSBLUFF    MOCLDY    73  62  68 SE6       29.74F
ALLIANCE       HVY RAIN  79  56  45 NW13G40   29.74R
CHADRON        CLOUDY    73  58  59 SW7       29.71R
KIMBALL        PTCLDY    80  51  35 SW6       29.79R
SIDNEY         CLEAR     83  58  42 S9        29.76R
$$

NEZ057>060-069>072-079>082-280300-
SOUTHWEST NEBRASKA

CITY           SKY/WX    TMP DP  RH WIND       PRES   REMARKS
NORTH PLATTE   CLEAR     83  71  67 SE9       29.71S
IMPERIAL       CLEAR     87  67  51 S14       29.72S HX  90
MCCOOK         CLEAR     89  68  49 S18       29.72S HX  93
$$

NEZ005>010-023>029-035>040-094-280300-
NORTH CENTRAL NEBRASKA

CITY           SKY/WX    TMP DP  RH WIND       PRES   REMARKS
VALENTINE      PTCLDY    87  70  56 S17       29.70R HX  92
AINSWORTH      PTCLDY    84  72  65 S15       29.73R
BROKEN BOW     MOCLDY    85  73  67 SE15G28   29.75S HX  91
O`NEILL        PTCLDY    84  72  67 SE13G21   29.74F
ORD            CLEAR     84  72  67 SE10G24   29.74F
$$

NEZ041-046>049-061>064-073>077-083>087-280300-
SOUTH CENTRAL NEBRASKA

CITY           SKY/WX    TMP DP  RH WIND       PRES   REMARKS
GRAND ISLAND   PTCLDY    82  74  76 SE10      29.78F
AURORA         CLEAR     82  76  84 SE9       29.79S
HASTINGS       CLEAR     83  76  79 SE10      29.78F HX  91
KEARNEY *      PTCLDY    82  72  69 SE10      29.77S
$$

NEZ011>018-030>034-042>045-280300-
NORTHEAST NEBRASKA

CITY           SKY/WX    TMP DP  RH WIND       PRES   REMARKS
NORFOLK        CLEAR     82  74  76 SE13      29.77F
BLAIR          CLEAR     76  68  76 SE9G18    29.84S
COLUMBUS *     CLEAR     84  72  65 SE8       29.79S
FREMONT        PTCLDY    80  72  75 E17G25    29.82S
TEKAMAH        CLEAR     78  70  76 SE12      29.83S
$$

NEZ050>053-065>068-078-088>093-280300-
SOUTHEAST NEBRASKA

CITY           SKY/WX    TMP DP  RH WIND       PRES   REMARKS
LINCOLN        CLEAR     86  77  74 SE13      29.81S HX  97
OMAHA EPPLEY   PTCLDY    78  70  76 SE16      29.84S
FALLS CITY     CLEAR     81  77  88 E10       29.84R
$$

NEZ044-045-051>053-067-280300-
OMAHA AREA

CITY           SKY/WX    TMP DP  RH WIND       PRES   REMARKS
OMAHA EPPLEY   PTCLDY    78  70  76 SE16      29.84S
BLAIR          CLEAR     76  68  76 SE9G18    29.84S
FREMONT        PTCLDY    80  72  75 E17G25    29.82S
OFFUTT AFB     CLEAR     77  71  82 E10       29.84S
$$


USA.gov is the U.S. government's official web portal to all federal, state and local government web resources and services.